Flag for Puerto Rico Weather past 2 weeks in Caguas, Puerto Rico

Now
75 °F

Clear.


Feels Like: 75 °F
Forecast: 67 / 85 °F
Wind: 3 mph from Southeast

Location: Luis Munoz Marin

Current Time: Mar 29, 2015 at 3:52:51 AM

Latest Report: Mar 29, 2015 at 2:56 AM


Visibility: 10 mi

Pressure: 30.05 "Hg

Humidity: 85%

Dew point: 70 °F

Location of CaguasLocation

Historic Weather in Caguas — Graph

°F

Caguas temperature yesterday

Maximum temperature yesterday: 87 °F (at 11:56 AM)
Minimum temperature yesterday: 74 °F (at 5:56 AM)
Average temperature yesterday: 80 °F

Past Weeks' High & Low Weather Summary

 TemperatureHumidityPressure
High87 °F (Mar 28, 11:56 AM)94% (Mar 14, 1:56 AM)30.16 "Hg (Mar 14, 1:56 AM)
Low71 °F (Mar 17, 4:56 AM)48% (Mar 28, 11:56 AM)29.94 "Hg (Mar 18, 3:56 PM)
Average78 °F77%30.04 "Hg
* Reported Mar 14 1:56 AM — Mar 29 1:56 AM, Caguas, Weather by CustomWeather, © 2015

Note: Actual official high and low records may vary slightly from our data, if they occured in-between our weather recording intervals... More about our weather records

Advertising

Caguas weather history for previous 24 hours

 ConditionsComfort  
Time TempWeatherWind HumidityBarometerVisibility
1:56 AM
Sun, Mar 29
76 °FPassing clouds.3 mph82%30.07 "Hg10 mi
12:56 AM77 °FPassing clouds.3 mph79%30.10 "Hg10 mi
11:56 PM
Sat, Mar 28
77 °FPassing clouds.5 mph79%30.11 "Hg10 mi
10:56 PM77 °FPassing clouds.5 mph79%30.12 "Hg10 mi
9:56 PM77 °FClear.5 mph79%30.12 "Hg10 mi
8:56 PM78 °FClear.8 mph76%30.11 "Hg10 mi
7:56 PM79 °FPassing clouds.7 mph72%30.10 "Hg10 mi
6:56 PM80 °FScattered clouds.10 mph71%30.08 "Hg10 mi
5:56 PM81 °FScattered clouds.14 mph69%30.06 "Hg10 mi
4:56 PM82 °FScattered clouds.17 mph67%30.05 "Hg10 mi
3:56 PM83 °FScattered clouds.22 mph68%30.05 "Hg10 mi
2:56 PM85 °FPassing clouds.17 mph63%30.06 "Hg10 mi
1:56 PM87 °FScattered clouds.16 mph61%30.08 "Hg10 mi
12:56 PM85 °FScattered clouds.14 mph63%30.11 "Hg10 mi
11:56 AM87 °FScattered clouds.6 mph48%30.14 "Hg10 mi
10:56 AM86 °FScattered clouds.12 mph49%30.15 "Hg10 mi
9:56 AM84 °FScattered clouds.7 mph55%30.16 "Hg10 mi
8:56 AM81 °FPassing clouds.5 mph67%30.15 "Hg10 mi
7:56 AM77 °FScattered clouds.8 mph82%30.13 "Hg10 mi
6:56 AM74 °FPassing clouds.3 mph91%30.09 "Hg10 mi
5:56 AM74 °FPartly cloudy.3 mph94%30.07 "Hg10 mi
4:56 AM75 °FLight rain. Passing clouds.5 mph85%30.05 "Hg10 mi
3:56 AM75 °FPassing clouds.No wind82%30.04 "Hg10 mi
Weather by CustomWeather, © 2015

See weather overviewHow to use our weather pages